Flag for U.S.A. Weather past 2 weeks in Jackson, Mississippi, U.S.A.

Now
62 °F

Passing clouds.


Feels Like: 62 °F
Forecast: 54 / 67 °F
Wind: 7 mph from South

Location: Hawkins Field

Current Time: Dec 22, 2014 at 11:17:05 PM

Latest Report: Dec 22, 2014 at 10:53 PM


Visibility: 7 mi

Pressure: 29.68 "Hg

Humidity: 93%

Dew point: 60 °F

Location of JacksonLocation

Historic Weather in Jackson — Graph

°F

Jackson temperature yesterday

Maximum temperature yesterday: 60 °F (at 2:53 PM)
Minimum temperature yesterday: 36 °F (at 5:53 AM)
Average temperature yesterday: 48 °F

Past Weeks' High & Low Weather Summary

 TemperatureHumidityPressure
High68 °F (Dec 14, 1:53 PM)100% (Dec 22, 8:53 AM)30.40 "Hg (Dec 22, 8:53 AM)
Low32 °F (Dec 11, 4:53 AM)28% (Dec 9, 1:53 PM)29.63 "Hg (Dec 22, 3:53 PM)
Average49 °F76%30.16 "Hg
* Reported Dec 7 9:53 PM — Dec 22 9:03 PM, Jackson, Weather by CustomWeather, © 2014

Note: Actual official high and low records may vary slightly from our data, if they occured in-between our weather recording intervals... More about our weather records

Advertising

Jackson weather history for previous 24 hours

 ConditionsComfort  
Time TempWeatherWind HumidityBarometerVisibility
9:03 PM
Dec 22
61 °FFog.6 mph97%29.68 "Hg2 mi
8:53 PM61 °FFog.6 mph97%29.66 "Hg3 mi
7:53 PM62 °FFog.6 mph96%29.67 "Hg4 mi
6:53 PM61 °FFog.6 mph97%29.65 "Hg4 mi
5:53 PM61 °FFog.7 mph93%29.64 "Hg5 mi
4:53 PM63 °FFog.8 mph90%29.64 "Hg6 mi
3:53 PM63 °FFog.12 mph90%29.63 "Hg6 mi
3:04 PM61 °FFog.5 mph93%29.68 "Hg2 mi
2:53 PM61 °FFog.7 mph93%29.66 "Hg2 mi
1:53 PM60 °FFog.8 mph90%29.67 "Hg3 mi
12:53 PM59 °FFog.8 mph93%29.70 "Hg2 mi
11:53 AM60 °FFog.7 mph86%29.74 "Hg6 mi
10:53 AM58 °FLow clouds.6 mph90%29.78 "Hg7 mi
10:01 AM57 °FFog.7 mph93%29.82 "Hg3 mi
9:04 AM55 °FFog.8 mph96%29.83 "Hg1 mi
8:53 AM54 °FFog.8 mph100%29.81 "Hg1 mi
7:53 AM53 °FFog.9 mph96%29.82 "Hg1 mi
6:53 AM52 °FFog.7 mph97%29.83 "Hg1 mi
5:53 AM52 °FFog.8 mph97%29.83 "Hg2 mi
4:53 AM52 °FFog.6 mph93%29.85 "Hg3 mi
3:53 AM52 °FFog.6 mph93%29.86 "Hg5 mi
2:53 AM52 °FFog.6 mph93%29.88 "Hg5 mi
1:53 AM51 °FFog.10 mph92%29.88 "Hg4 mi
12:53 AM51 °FFog.9 mph89%29.91 "Hg4 mi
11:53 PM
Dec 21
50 °FFog.7 mph93%29.92 "Hg5 mi
Weather by CustomWeather, © 2014

See weather overviewHow to use our weather pages